Wind_Speed
36 37 37 36 36 35 35 34 33 32 33 33 33 32 32 32 32 33 30 30 29 27 25 22 22 19 15 15 13 13 11 8 4 4 6 7 8 7 6 6 7 7 8 6 8 11 9
40 39 39 38 39 39 37 36 35 34 32 32 33 32 33 33 33 33 33 30 31 28 26 25 24 21 17 15 14 11 11 9 6 6 9 10 9 9 8 6 3 3 3 5 4 2 4
45 44 43 42 41 40 40 39 38 36 34 32 31 31 32 32 33 33 33 32 31 30 27 27 25 23 19 14 14 11 13 11 9 9 13 11 8 8 7 5 5 4 2 2 2 4 5
47 48 48 47 46 44 43 41 40 39 37 34 32 30 31 31 30 32 32 31 31 30 28 27 26 24 21 16 14 14 16 14 11 11 13 11 11 9 8 7 5 3 3 7 2 3 7
44 46 47 50 50 50 48 45 43 42 40 37 34 32 31 30 30 30 31 30 31 31 27 27 27 24 21 19 15 18 18 17 15 14 15 11 10 10 11 9 8 8 7 4 5 4 7
40 42 44 46 48 51 52 50 47 45 42 40 36 34 32 30 30 30 28 29 28 29 27 27 27 22 19 11 14 19 21 22 18 15 14 13 13 11 11 13 16 9 9 6 8 5 10
36 37 38 38 41 45 48 52 52 49 45 42 40 37 34 32 31 29 27 25 27 29 28 26 22 16 19 12 17 20 23 25 21 18 13 14 10 11 9 12 10 9 6 6 7 5 8
36 36 36 37 37 36 39 45 50 53 49 45 42 40 37 33 32 29 26 25 26 28 29 26 26 29 19 16 20 23 26 29 27 19 16 13 12 9 8 8 8 8 8 8 4 5 11
40 40 40 39 38 38 37 35 39 46 52 49 44 42 39 36 33 29 25 26 22 27 29 32 28 29 26 28 22 28 30 30 27 21 20 16 8 13 10 8 8 10 11 7 7 9 8
42 43 43 43 43 42 41 39 36 36 43 52 48 44 41 38 35 29 25 25 19 20 17 28 25 31 29 30 33 27 30 32 26 25 19 18 16 13 14 12 11 11 8 9 8 6 3
45 46 46 46 46 45 45 45 42 37 37 42 51 47 44 40 38 29 26 21 16 11 6 10 21 25 28 37 25 36 32 36 25 22 23 18 16 16 13 15 14 9 6 6 7 8 5
51 49 49 49 49 49 48 47 46 43 38 37 43 50 47 44 39 29 26 18 14 8 10 9 12 19 25 35 30 25 37 38 25 22 25 17 14 11 8 7 12 9 5 1 4 5 8
55 54 53 51 51 51 50 50 49 46 41 39 37 46 49 46 37 33 27 20 13 15 7 12 14 17 21 28 31 28 43 43 32 27 28 23 19 14 10 7 11 9 7 7 6 5 3
56 54 52 49 47 47 48 49 50 48 44 39 37 36 48 49 39 36 29 27 19 15 25 8 17 14 18 21 24 28 34 38 35 27 21 26 22 20 16 13 10 14 13 6 6 5 5
55 55 53 50 46 44 43 44 45 46 44 38 35 30 42 47 43 40 37 36 31 24 19 16 9 13 17 23 19 24 33 40 37 34 23 27 22 16 18 16 12 11 13 10 2 2 3
56 53 50 47 44 42 43 44 45 43 42 37 35 28 35 44 43 42 44 51 33 25 25 23 16 11 16 22 21 27 29 33 36 35 28 13 20 17 16 19 17 12 12 8 7 4 6
59 56 55 53 49 46 45 43 44 39 40 36 33 31 38 38 38 45 50 58 41 25 24 25 19 15 16 18 28 26 21 15 37 35 32 23 16 10 23 19 16 16 14 10 7 6 4
52 51 54 57 56 53 47 43 41 42 40 39 37 41 40 33 45 52 60 55 27 39 28 25 21 28 15 19 23 27 30 26 14 35 40 30 17 17 16 17 20 18 17 18 13 10 8
53 52 49 51 57 55 47 48 46 48 47 45 46 44 36 33 54 53 63 49 40 23 38 24 24 20 23 14 16 24 26 30 13 27 34 35 21 17 17 15 20 19 19 17 16 16 15
46 47 50 51 46 46 49 49 52 52 52 51 50 45 35 40 46 64 55 40 47 39 28 35 22 23 18 18 18 13 25 26 30 13 31 35 25 28 24 18 15 21 21 20 20 18 18
53 49 48 47 49 51 52 51 55 56 55 58 59 50 56 50 52 59 58 37 43 43 44 31 34 25 19 14 13 21 14 27 26 27 26 33 30 27 26 20 18 19 19 21 26 26 24
51 49 52 51 50 53 54 52 57 61 58 66 65 52 53 34 49 56 63 53 42 50 38 45 35 34 24 20 10 15 15 24 20 34 31 34 25 23 21 21 22 22 22 23 24 20 21
47 46 45 47 55 54 51 55 55 61 61 72 67 61 40 56 42 48 57 58 47 42 44 35 36 28 38 27 18 13 13 11 18 18 29 29 27 22 23 18 16 20 28 22 21 24 22
51 50 49 46 47 51 56 58 58 64 65 71 68 64 48 38 46 43 48 52 50 42 42 32 28 37 39 38 31 25 23 13 13 17 18 23 29 23 19 18 8 26 21 21 24 23 23
50 53 55 53 51 49 53 58 66 63 62 72 66 69 52 42 38 43 41 48 44 39 38 38 27 26 32 38 32 23 29 23 24 20 20 15 21 23 17 20 19 17 24 24 26 25 24
40 43 49 52 53 48 49 56 61 63 59 71 59 61 57 39 46 39 43 41 52 48 37 38 33 21 25 27 17 17 16 9 12 13 25 20 24 18 17 11 8 21 25 25 21 24 23
42 45 45 51 51 47 50 50 54 59 58 69 53 64 57 51 40 29 43 41 42 43 44 36 28 34 32 25 21 16 13 27 9 8 14 24 24 27 21 11 14 16 15 16 17 31 16
38 47 45 51 51 47 46 52 51 57 61 66 54 61 57 44 19 35 36 41 35 43 47 36 30 29 34 27 19 13 11 17 24 19 8 14 21 22 21 14 14 20 19 24 28 20 18
27 40 48 51 47 46 47 45 46 55 65 60 54 62 56 54 24 34 35 34 38 42 39 36 43 35 29 25 21 15 15 15 17 17 39 20 16 18 23 19 21 18 15 19 21 20 21
Wind_Direction
268 269 269 268 268 269 270 271 269 269 269 267 264 263 265 265 267 269 268 269 271 273 276 279 281 284 287 288 281 273 256 237 217 224 199 186 180 192 208 236 272 293 301 305 279 231 230
268 268 267 266 267 267 268 268 268 268 268 271 268 265 263 263 264 266 267 266 269 269 273 276 276 279 280 283 279 260 230 220 199 213 187 185 183 198 201 223 247 281 19 27 9 325 289
269 267 267 267 265 265 264 265 267 267 266 265 267 268 267 264 263 264 265 266 266 269 270 272 274 274 273 277 270 245 218 206 193 202 182 197 200 197 220 246 245 268 319 9 90 73 13
270 268 266 265 264 264 263 262 262 263 264 264 264 264 266 267 266 264 263 263 265 264 266 269 271 272 271 263 256 234 209 197 193 199 201 208 219 221 229 234 252 234 228 253 164 29 349
271 270 267 265 262 261 261 261 261 260 260 261 261 262 262 264 266 265 265 263 263 263 260 264 267 270 274 258 246 228 206 190 193 200 210 219 239 242 247 240 233 226 261 275 251 297 298
275 272 268 265 263 260 257 257 257 258 258 258 258 259 259 260 263 265 265 266 266 261 258 259 262 264 252 242 231 220 203 189 192 200 213 227 243 245 241 224 231 216 221 233 291 257 308
276 274 274 272 268 263 260 255 253 253 254 255 256 256 256 258 260 263 265 269 267 263 251 250 249 244 235 230 223 211 202 190 193 201 208 225 222 231 248 227 242 232 252 267 288 275 304
274 273 272 273 273 271 266 260 255 250 249 249 250 252 253 254 257 258 262 266 266 263 259 251 246 240 228 220 211 207 199 194 197 203 209 219 222 226 213 216 226 229 247 270 254 283 313
273 272 272 270 269 268 268 267 261 253 247 245 244 246 248 250 253 255 258 261 267 271 267 256 253 247 233 226 214 206 199 196 202 205 214 217 219 212 210 222 232 241 254 263 266 296 304
275 272 269 266 264 263 264 264 263 259 251 243 240 241 242 245 248 250 254 260 264 271 276 266 259 245 234 223 223 208 203 202 202 210 215 225 223 214 232 240 235 243 249 255 258 279 242
277 274 271 268 266 263 260 260 261 259 258 249 236 235 237 237 243 244 251 256 255 258 271 253 231 224 229 211 223 209 205 202 204 202 204 217 220 226 239 251 225 227 234 238 243 240 265
279 275 271 268 264 262 260 258 257 258 254 255 242 230 230 231 234 237 242 238 227 209 243 234 224 212 218 201 204 204 202 202 204 209 215 217 203 212 237 204 185 210 222 214 198 204 239
280 278 274 267 262 259 256 255 253 253 253 249 250 235 225 224 223 225 227 213 193 219 245 231 226 221 211 203 195 201 194 197 194 195 210 214 218 225 219 186 200 205 203 182 191 207 252
279 276 272 268 263 256 253 249 249 250 247 244 246 244 227 219 212 214 210 191 220 231 210 217 212 218 209 189 199 194 195 198 200 201 204 205 208 213 217 206 220 210 208 229 222 195 189
277 273 270 266 261 255 247 245 245 244 243 235 239 236 233 215 201 202 194 199 220 217 209 217 217 213 209 197 195 193 201 204 202 197 197 203 212 201 215 219 203 208 208 220 208 207 255
273 268 265 258 256 255 247 245 241 238 237 227 228 228 235 218 195 191 197 217 217 210 215 216 222 209 214 201 196 197 197 213 207 207 201 212 213 214 218 214 211 206 209 187 210 226 243
268 261 257 255 253 254 248 241 235 225 229 221 218 214 234 218 195 191 205 216 215 214 203 221 218 216 219 207 205 205 207 215 205 209 205 210 206 199 217 213 209 204 211 212 216 220 256
262 260 255 250 251 251 244 236 226 215 220 216 212 209 224 222 200 203 213 211 205 209 202 215 222 218 220 221 213 213 211 208 217 210 209 202 212 214 211 218 218 219 226 216 219 210 226
260 257 252 248 247 245 236 229 219 214 213 211 208 208 216 219 206 207 214 220 211 204 207 211 213 218 218 223 218 215 223 219 211 208 202 202 213 211 223 231 227 224 226 223 231 243 242
259 255 250 247 238 230 227 224 214 215 211 208 201 202 207 216 217 215 213 217 214 213 217 216 223 214 207 219 222 222 219 221 215 218 205 211 211 216 225 221 222 227 230 233 238 240 253
257 252 249 243 235 225 225 222 214 214 209 202 197 204 206 207 210 212 212 217 214 210 212 213 218 214 210 215 217 216 221 214 214 210 213 212 219 227 234 238 242 244 244 237 235 245 250
258 250 245 239 233 234 226 221 214 212 208 201 202 200 202 218 214 208 209 210 214 209 211 210 214 217 207 205 202 191 217 203 212 213 216 216 220 224 228 233 243 246 252 246 243 245 249
253 246 240 235 232 231 229 215 213 211 205 200 207 199 200 204 211 211 210 209 211 212 214 221 213 210 218 211 212 183 176 193 205 202 215 214 207 216 229 240 238 250 251 240 236 249 260
250 243 238 233 226 222 222 219 215 211 207 206 207 203 196 206 207 212 216 210 207 210 213 212 214 218 224 218 236 233 244 251 223 202 206 217 218 221 230 235 228 251 251 243 247 256 260
250 241 236 226 223 218 219 216 215 209 204 204 209 203 201 201 213 214 216 211 207 205 211 213 215 223 221 227 232 248 256 267 238 231 219 214 210 217 217 224 246 244 244 248 252 261 261
244 232 225 218 216 216 212 211 209 203 198 202 208 203 203 201 213 216 212 208 200 199 203 210 214 196 211 216 207 226 218 246 216 221 221 217 216 208 203 218 224 251 256 259 255 254 266
239 224 216 205 205 206 201 200 203 194 194 198 203 206 203 210 214 210 212 210 199 202 197 196 197 203 219 217 203 217 213 221 229 218 206 207 215 215 218 229 240 244 243 250 223 262 274
217 206 200 191 193 195 190 199 190 188 191 197 204 202 201 205 223 206 205 211 195 199 193 198 193 201 205 201 198 198 203 213 219 232 212 214 211 216 218 228 236 243 242 231 270 270 278
160 174 176 178 184 183 184 187 187 185 191 196 203 199 204 208 207 207 215 221 200 202 192 194 213 204 202 200 214 204 212 197 220 226 233 249 239 233 229 238 246 253 261 264 264 267 279
Height
3117 3118 3119 3120 3121 3122 3123 3125 3125 3126 3128 3129 3130 3131 3132 3132 3133 3135 3135 3135 3135 3135 3136 3136 3136 3135 3135 3135 3134 3133 3133 3133 3133 3133 3132 3133 3134 3136 3138 3137 3135 3134 3132 3129 3127 3128 3128
3110 3109 3111 3112 3114 3114 3116 3117 3118 3119 3120 3123 3124 3124 3124 3125 3126 3127 3129 3129 3130 3130 3131 3131 3131 3130 3130 3131 3130 3129 3130 3131 3131 3131 3131 3132 3133 3134 3135 3135 3135 3133 3131 3129 3129 3129 3129
3100 3100 3101 3103 3104 3106 3107 3109 3111 3112 3114 3114 3117 3118 3118 3118 3119 3120 3121 3124 3123 3124 3125 3125 3125 3126 3126 3127 3127 3126 3127 3129 3130 3130 3130 3131 3133 3134 3134 3134 3132 3132 3132 3130 3129 3129 3129
3089 3090 3091 3093 3094 3095 3098 3100 3102 3104 3106 3108 3109 3110 3112 3111 3112 3113 3114 3115 3117 3117 3119 3120 3120 3120 3120 3122 3122 3123 3124 3126 3128 3128 3129 3130 3131 3132 3132 3132 3131 3132 3131 3128 3128 3128 3127
3077 3078 3079 3081 3083 3086 3088 3090 3093 3096 3099 3101 3102 3104 3104 3106 3106 3106 3108 3108 3109 3111 3112 3113 3115 3116 3116 3116 3117 3119 3121 3124 3126 3127 3128 3129 3130 3130 3131 3131 3131 3129 3126 3128 3128 3126 3127
3067 3067 3068 3069 3071 3073 3076 3079 3082 3086 3090 3093 3095 3097 3098 3099 3100 3100 3102 3103 3102 3105 3106 3107 3109 3115 3113 3112 3112 3115 3118 3121 3124 3125 3127 3127 3128 3128 3127 3127 3125 3124 3125 3125 3125 3125 3124
3058 3057 3057 3058 3060 3061 3064 3067 3070 3074 3079 3084 3089 3091 3092 3094 3094 3096 3098 3099 3101 3100 3098 3101 3103 3104 3106 3106 3109 3112 3115 3118 3121 3123 3126 3125 3127 3125 3125 3125 3125 3125 3125 3124 3123 3123 3123
3048 3049 3049 3049 3050 3051 3052 3055 3059 3063 3068 3073 3079 3083 3086 3088 3089 3090 3094 3094 3093 3093 3091 3092 3094 3098 3102 3101 3104 3107 3112 3116 3117 3120 3122 3124 3122 3123 3123 3123 3124 3125 3124 3123 3122 3122 3120
3038 3039 3039 3040 3041 3042 3043 3045 3046 3051 3056 3062 3068 3074 3079 3082 3083 3087 3089 3087 3089 3088 3086 3086 3087 3090 3095 3098 3099 3101 3107 3110 3113 3117 3119 3120 3121 3120 3121 3122 3122 3122 3123 3122 3122 3120 3118
3027 3028 3029 3030 3031 3032 3033 3035 3038 3039 3043 3049 3057 3064 3070 3075 3080 3082 3085 3083 3085 3084 3084 3078 3080 3081 3086 3090 3091 3097 3101 3108 3109 3113 3117 3118 3118 3118 3119 3120 3121 3119 3120 3120 3120 3119 3115
3014 3015 3017 3018 3020 3021 3023 3025 3027 3031 3034 3037 3044 3053 3060 3066 3069 3078 3080 3081 3082 3086 3083 3073 3068 3070 3074 3080 3085 3088 3095 3101 3105 3108 3112 3114 3113 3115 3116 3116 3117 3119 3117 3117 3117 3117 3117
2999 3000 3002 3004 3006 3008 3011 3013 3017 3020 3024 3028 3031 3041 3048 3055 3062 3072 3073 3077 3080 3087 3072 3065 3063 3062 3067 3070 3077 3082 3087 3094 3103 3106 3107 3110 3109 3112 3113 3111 3113 3114 3115 3115 3116 3117 3113
2981 2982 2985 2988 2990 2993 2997 3001 3005 3009 3014 3019 3022 3027 3036 3044 3057 3062 3066 3072 3078 3071 3063 3060 3059 3059 3063 3064 3071 3076 3078 3083 3090 3098 3100 3105 3106 3108 3109 3111 3112 3113 3115 3112 3114 3112 3109
2963 2964 2967 2971 2974 2978 2982 2987 2992 2997 3003 3009 3013 3018 3024 3032 3046 3053 3059 3066 3061 3050 3056 3055 3056 3057 3059 3062 3068 3071 3076 3080 3086 3090 3095 3098 3102 3103 3104 3108 3110 3110 3112 3109 3107 3107 3106
2946 2948 2950 2954 2958 2963 2968 2973 2979 2985 2992 2999 3005 3008 3012 3020 3033 3042 3050 3050 3037 3046 3049 3053 3054 3054 3056 3058 3064 3066 3071 3074 3078 3082 3090 3092 3096 3098 3101 3103 3107 3107 3108 3109 3109 3109 3109
2929 2931 2934 2938 2943 2949 2955 2961 2967 2973 2981 2989 2995 3000 3002 3015 3022 3031 3036 3027 3033 3041 3045 3047 3051 3050 3052 3053 3058 3062 3066 3068 3074 3078 3085 3089 3094 3095 3096 3099 3101 3103 3104 3107 3107 3106 3103
2910 2913 2918 2923 2928 2934 2941 2947 2955 2963 2972 2981 2987 2990 2992 3005 3015 3019 3012 3008 3026 3034 3039 3043 3045 3046 3048 3049 3053 3056 3058 3062 3068 3071 3080 3087 3089 3091 3093 3093 3096 3099 3100 3102 3102 3102 3099
2892 2894 2898 2904 2911 2918 2926 2934 2943 2951 2962 2969 2976 2979 2984 2996 3004 3001 2997 3002 3020 3026 3032 3036 3039 3041 3044 3047 3048 3052 3054 3059 3062 3066 3071 3080 3084 3086 3089 3089 3091 3093 3095 3096 3097 3098 3098
2874 2876 2880 2884 2892 2900 2910 2919 2928 2937 2946 2956 2960 2971 2979 2987 2986 2990 2992 3000 3011 3018 3025 3030 3034 3037 3040 3044 3046 3046 3050 3056 3059 3061 3066 3073 3077 3081 3084 3087 3086 3087 3089 3092 3093 3093 3093
2856 2858 2862 2867 2875 2883 2893 2903 2913 2921 2932 2942 2952 2961 2969 2972 2977 2984 2987 2996 3003 3012 3019 3026 3028 3033 3036 3039 3040 3041 3045 3050 3055 3059 3064 3067 3071 3073 3074 3077 3081 3083 3084 3085 3088 3088 3089
2836 2840 2846 2851 2858 2867 2876 2886 2897 2907 2918 2927 2933 2937 2943 2947 2959 2967 2981 2989 2996 3003 3009 3018 3023 3026 3032 3036 3037 3039 3041 3045 3050 3054 3057 3062 3065 3069 3071 3074 3076 3077 3078 3080 3081 3082 3083
2815 2819 2826 2834 2841 2850 2860 2870 2879 2891 2904 2909 2915 2921 2934 2942 2949 2954 2963 2971 2987 2997 3001 3005 3014 3022 3027 3031 3034 3034 3038 3041 3045 3048 3052 3055 3060 3063 3065 3068 3070 3071 3071 3073 3075 3076 3077
2795 2800 2806 2813 2823 2833 2841 2852 2865 2874 2888 2891 2903 2918 2930 2934 2939 2950 2953 2962 2977 2992 2998 3005 3012 3017 3020 3028 3031 3031 3035 3037 3039 3042 3046 3050 3054 3057 3059 3062 3064 3065 3063 3067 3069 3070 3071
2775 2781 2788 2797 2806 2816 2827 2837 2848 2859 2871 2884 2892 2909 2918 2925 2937 2939 2948 2960 2970 2981 2993 3002 3006 3009 3016 3023 3025 3027 3031 3033 3035 3038 3040 3043 3048 3053 3055 3057 3057 3057 3059 3061 3063 3065 3065
2751 2758 2767 2779 2790 2801 2811 2822 2832 2847 2864 2877 2886 2900 2911 2921 2929 2937 2944 2951 2967 2980 2989 2998 3002 3006 3012 3017 3023 3021 3027 3030 3030 3033 3036 3039 3043 3046 3048 3050 3051 3051 3052 3056 3057 3058 3059
2730 2737 2746 2760 2775 2787 2798 2809 2824 2839 2856 2872 2882 2899 2908 2918 2915 2927 2937 2945 2954 2966 2984 2992 3001 3002 3007 3012 3016 3018 3025 3025 3026 3027 3030 3034 3036 3040 3041 3042 3042 3045 3048 3051 3052 3049 3052
2707 2718 2731 2746 2763 2777 2790 2805 2818 2835 2852 2865 2878 2892 2904 2909 2918 2927 2930 2939 2953 2964 2974 2984 2991 2996 3002 3005 3008 3014 3016 3021 3022 3022 3024 3026 3029 3031 3035 3034 3035 3039 3042 3045 3048 3044 3046
2680 2701 2720 2738 2756 2772 2786 2796 2815 2832 2848 2860 2872 2886 2898 2907 2914 2922 2930 2935 2945 2957 2963 2974 2989 2991 2996 3001 3004 3007 3009 3012 3017 3020 3020 3022 3024 3025 3029 3029 3030 3034 3036 3038 3038 3038 3039
2681 2697 2717 2737 2755 2771 2785 2799 2814 2830 2845 2858 2869 2883 2894 2906 2912 2915 2923 2928 2939 2949 2961 2964 2973 2981 2986 2994 2997 3001 3002 3007 3009 3011 3018 3019 3019 3022 3021 3021 3024 3027 3030 3031 3032 3033 3033